Regional Weather Roundup
Issued by NWS Midland/Odessa, TX

Skip options and go directly to product.
Home | Oldest Version | Previous Version | Current Version | All | Text Only | Save Text | Print | Product List | Glossary Off

Skip product version selection by date and time.   

071
ASUS44 KMAF 142110
RWRMAF
MIDLAND AREA WEATHER ROUNDUP
NATIONAL WEATHER SERVICE MIDLAND TX
300 PM CST SUN FEB 14 2016

...IN SOUTHWEST TEXAS AND SOUTHEAST NEW MEXICO...

CITY           SKY/WX    TMP DP  RH WIND       PRES   REMARKS
ALPINE         MOSUNNY   70  25  18 E15       30.03S
ANDREWS        FAIR     N/A N/A N/A NE6       29.93F
ARTESIA        SUNNY     61  25  25 CALM      29.96F
BIG SPRING     SUNNY     61  34  36 N6        29.91F
CARLSBAD       SUNNY     65  23  20 VRB6      29.94F
DRYDEN           N/A     79  42  26 VRB6      29.84F
FORT STOCKTON  SUNNY     68  30  24 N13       29.94F
GUAD PASS      SUNNY     69  15  12 SW12      30.02F
HOBBS          SUNNY     63  18  17 N6        29.96F
MARFA          SUNNY     73  14  10 NW10G22   29.99F
MIDLAND AIRPK  SUNNY     66  30  26 N5        29.92F
MIDLAND INTL   SUNNY     66  30  26 N9        29.91F
ODESSA         SUNNY     66  29  24 N6        29.93F
PECOS          SUNNY     67  31  25 NW6G20    29.95F
PRESIDIO       FAIR      76  24  14 SW7       29.91F
SEMINOLE       SUNNY     64  22  20 N5        29.94F
SNYDER           N/A     63  36  36 NE8       29.89F
WINK           SUNNY     69  28  21 N12       29.92F
$$
...OTHER STATIONS IN TEXAS...

CITY           SKY/WX    TMP DP  RH WIND       PRES   REMARKS
ABILENE        CLOUDY    60  40  47 N7        29.88F
AMARILLO       SUNNY     55  21  26 S9        29.91F
AUSTIN         CLOUDY    74  54  49 S16G22    29.88F
BROWNSVILLE    MOSUNNY   78  58  49 S23G33    29.89F
CORPUS CHRISTI PTSUNNY   79  57  46 S29G37    29.87F
DALLAS FTW     CLOUDY    66  52  60 S3        29.85F
DEL RIO        SUNNY     70  52  52 CALM      29.85F
EL PASO        MOSUNNY   73  10   9 NW5       29.96F
HOUSTON INT    CLOUDY    72  53  51 S12G23    29.92F
LUBBOCK        PTSUNNY   60  12  15 N10       29.93F
SAN ANGELO     MOSUNNY   73  45  36 VRB7      29.86F
SAN ANTONIO    CLOUDY    71  55  56 S9        29.87F
WACO           PTSUNNY   69  54  58 S16       29.86F
WICHITA FALLS  NOT AVBL
$$
...OTHER LOCATIONS IN NEW MEXICO...

CITY           SKY/WX    TMP DP  RH WIND       PRES   REMARKS
ALAMAGORDO     SUNNY     72   9   8 W9        29.97F
ALBUQUERQUE    CLOUDY    62  12  14 W7        30.00F
CANNON AFB     SUNNY     58  17  20 S12       29.93F
CLOVIS         SUNNY     55  21  26 S10       29.94F
HOLLOMAN AFB   SUNNY     70   7   8 VRB5      29.95F
ROSWELL        SUNNY     63  20  19 SW6       29.94F
RUIDOSO          N/A     59   1  10 NW16G23   30.04F
SANTA FE       CLOUDY    60   9  13 W18G33    29.97F
TRUTH OR CONSE SUNNY     69   6   8 SE7       29.98F
TUCUMCARI      CLOUDY    62  16  16 SW13G23   29.90F
$$

USA.gov is the U.S. government's official web portal to all federal, state and local government web resources and services.